Weather History for EGHH - November, 2012

Change the Weather History Date:

Friday, November 23, 2012

  Actual Average Record
Temperature  
Mean Temperature 46 °F -  
Max Temperature 54 °F 48 °F 55 °F (1999)
Min Temperature 37 °F 36 °F 28 °F (1996)
Degree Days  
Heating Degree Days 20    
Moisture  
Dew Point 42 °F    
Average Humidity 89    
Maximum Humidity 100    
Minimum Humidity 60    
Precipitation  
Precipitation 0.02 in 0.12 in - ()
Sea Level Pressure  
Sea Level Pressure 29.89 in    
Wind  
Wind Speed 3 mph ()    
Max Wind Speed 9 mph    
Max Gust Speed -    
Visibility 5.2 miles    
Events Fog , Rain    
Averages and records for this station are not official NWS values.
T = Trace of Precipitation, MM = Missing Value Source: Averaged Metar Reports

Daily Weather History Graph

Daily Weather History Graph

Search for Another Location

Airport or City:

Trip Planner

Search our weather history database for the weather conditions in past years. The results will help you decide how hot, cold, wet, or windy it might be!

Date:

Astronomy

Nov. 23, 2012 Rise Set
Actual Time 7:36 AM GMT 4:11 PM GMT
Civil Twilight 6:58 AM GMT 4:48 PM GMT
Nautical Twilight 6:18 AM GMT 5:29 PM GMT
Astronomical Twilight 5:38 AM GMT 6:08 PM GMT
Moon 1:43 PM GMT (11/23) 2:13 AM GMT (11/23)
Length of Visible Light 9h 49m
Length of Day
8h 34m
Waxing Gibbous, 78% of the Moon is Illuminated
Nov 23
Waxing Gibbous
Nov 28
Full
Dec 6
Last Quarter
Dec 13
New
Dec 20
First Quarter

Hourly Weather History & Observations

Time (GMT) Temp. Windchill Dew Point Humidity Pressure Visibility Wind Dir Wind Speed Gust Speed Precip Events Conditions
12:20 AM 44.6 °F 40.7 °F 42.8 °F 93% 29.74 in 6.2 mi West 6.9 mph - N/A Rain Light Rain
12:50 AM 44.6 °F 39.7 °F 42.8 °F 93% 29.71 in 6.2 mi SSW 9.2 mph - N/A Rain Light Rain
1:20 AM 46.4 °F 43.5 °F 42.8 °F 87% 29.74 in 6.2 mi SW 5.8 mph - N/A   Mostly Cloudy
1:50 AM 44.6 °F - 42.8 °F 93% 29.74 in 6.2 mi Variable 1.2 mph - N/A   Mostly Cloudy
2:50 AM 46 °F - 43 °F 85% 29.75 in 13 mi South 4.6 mph - -   Mostly Cloudy
3:20 AM 46.4 °F 43.5 °F 44.6 °F 93% 29.74 in - SSW 5.8 mph - N/A   Clear
5:20 AM 42.8 °F 39.3 °F 41.0 °F 93% 29.77 in - West 5.8 mph - N/A   Clear
5:50 AM 43 °F - 41 °F 91% 29.80 in 12 mi WSW 5.8 mph - -  
5:50 AM 42.8 °F 39.3 °F 41.0 °F 93% 29.80 in - WSW 5.8 mph - N/A   Clear
6:20 AM 42.8 °F 38.6 °F 41.0 °F 93% 29.80 in - West 6.9 mph - N/A   Clear
6:50 AM 44.6 °F 43.1 °F 42.8 °F 93% 29.80 in - WSW 3.5 mph - N/A   Clear
7:20 AM 42.8 °F 40.1 °F 41.0 °F 93% 29.83 in - WSW 4.6 mph - N/A   Clear
7:50 AM 42.8 °F - 41.0 °F 93% 29.83 in - Calm Calm - N/A   Clear
8:20 AM 41.0 °F - 41.0 °F 100% 29.86 in - Calm Calm - N/A   Clear
8:50 AM 42 °F - 42 °F 99% 29.87 in 9 mi East 1.2 mph - -   Mostly Cloudy
8:50 AM 41.0 °F - 41.0 °F 100% 29.86 in - Calm Calm - N/A   Clear
9:50 AM 46.4 °F - 44.6 °F 93% 29.89 in - Calm Calm - N/A   Clear
10:20 AM 48.2 °F - 44.6 °F 87% 29.89 in 6.2 mi Calm Calm - N/A   Partly Cloudy
10:50 AM 50.0 °F - 44.6 °F 82% 29.89 in 6.2 mi Variable 2.3 mph - N/A   Partly Cloudy
11:20 AM 51.8 °F - 44.6 °F 76% 29.89 in 6.2 mi Variable 2.3 mph - N/A   Partly Cloudy
11:50 AM 52 °F - 45 °F 69% 29.91 in 9 mi WSW 2.3 mph - -   Partly Cloudy
11:50 AM 51.8 °F - 44.6 °F 76% 29.89 in 6.2 mi Variable 2.3 mph - N/A   Partly Cloudy
12:20 PM 51.8 °F - 44.6 °F 76% 29.89 in 6.2 mi WSW 3.5 mph - N/A   Partly Cloudy
12:50 PM 51.8 °F - 46.4 °F 82% 29.89 in 6.2 mi West 3.5 mph - N/A   Partly Cloudy
1:20 PM 51.8 °F - 44.6 °F 76% 29.89 in 4.3 mi Calm Calm - N/A   Partly Cloudy
1:50 PM 51.8 °F - 44.6 °F 76% 29.89 in 4.3 mi Calm Calm - N/A   Scattered Clouds
2:20 PM 53.6 °F - 42.8 °F 67% 29.89 in 6.2 mi SW 3.5 mph - N/A   Scattered Clouds
2:50 PM 53 °F - 43 °F 60% 29.92 in 2 mi SW 5.8 mph - -   Light Haze
2:50 PM 53.6 °F - 42.8 °F 67% 29.89 in 6.2 mi SW 5.8 mph - N/A   Scattered Clouds
3:20 PM 51.8 °F - 42.8 °F 71% 29.92 in 6.2 mi SSW 3.5 mph - N/A   Partly Cloudy
3:50 PM 50.0 °F - 44.6 °F 82% 29.92 in 6.2 mi SSW 2.3 mph - N/A   Partly Cloudy
4:20 PM 48.2 °F - 44.6 °F 87% 29.92 in 6.2 mi SSW 3.5 mph - N/A   Partly Cloudy
4:50 PM 46.4 °F 45.2 °F 44.6 °F 93% 29.92 in 6.2 mi SW 3.5 mph - N/A   Partly Cloudy
5:20 PM 44.6 °F 43.1 °F 41.0 °F 87% 29.92 in 6.2 mi SW 3.5 mph - N/A Fog Shallow Fog
5:50 PM 44 °F - 42 °F 92% 29.95 in 6 mi South 2.3 mph - -   Scattered Clouds
5:50 PM 44.6 °F - 42.8 °F 93% 29.95 in 6.2 mi South 2.3 mph - N/A Fog Shallow Fog
6:20 PM 42.8 °F - 41.0 °F 93% 29.95 in 3.1 mi East 1.2 mph - N/A Fog Fog
6:50 PM 42.8 °F - 42.8 °F 100% 29.95 in 5.0 mi ESE 1.2 mph - N/A   Partly Cloudy
7:20 PM 42.8 °F - 41.0 °F 93% 29.95 in 3.7 mi East 1.2 mph - N/A Fog Fog
7:50 PM 39.2 °F - 39.2 °F 100% 29.98 in 3.1 mi NW 1.2 mph - N/A Fog Fog
8:20 PM 39.2 °F - 39.2 °F 100% 29.98 in - East 2.3 mph - N/A Fog Patches of Fog
8:50 PM 40 °F - 39 °F 94% 29.98 in 0 mi East 2.3 mph - - Fog Fog
8:50 PM 39.2 °F - 39.2 °F 100% 29.98 in - East 2.3 mph - N/A Fog Patches of Fog
9:20 PM 37.4 °F - 37.4 °F 100% 29.98 in 0.6 mi NE 1.2 mph - N/A Fog Patches of Fog
9:50 PM 39.2 °F - 39.2 °F 100% 29.98 in 0.9 mi NE 1.2 mph - N/A Fog Shallow Fog
10:20 PM 39.2 °F - 37.4 °F 93% 29.98 in 3.1 mi NNW 2.3 mph - N/A Fog Fog
10:50 PM 37.4 °F - 37.4 °F 100% 29.98 in 0.7 mi NW 2.3 mph - N/A Fog Shallow Fog
11:20 PM 37.4 °F - 37.4 °F 100% 29.98 in 0.5 mi NW 2.3 mph - N/A Fog Fog
11:50 PM 38 °F - 37 °F 96% 30.00 in 1 mi East 1.2 mph - - Fog Fog
11:50 PM 37.4 °F - 37.4 °F 100% 29.98 in - Variable 1.2 mph - N/A Fog Fog